| time (UTC) | temp F | wind direction | speed MPH | gust MPH | rain 1hr in | rain 24hr in | rain mn in | humidity % | barometer mb |
| 20260506033304 | 61 | 88 | 0.0 | 1.0 | 0.00 | 0.00 | 0.00 | 78 | 1014.7 |
| 20260506032804 | 61 | 88 | 1.0 | 1.0 | 0.00 | 0.00 | 0.00 | 77 | 1014.7 |
| 20260506032306 | 62 | 88 | 0.0 | 1.0 | 0.00 | 0.00 | 0.00 | 77 | 1014.6 |
| 20260506031805 | 62 | 88 | 0.0 | 0.0 | 0.00 | 0.00 | 0.00 | 76 | 1014.6 |
| 20260506030804 | 63 | 88 | 0.0 | 2.0 | 0.00 | 0.00 | 0.00 | 75 | 1014.5 |
| 20260506030305 | 63 | 88 | 1.0 | 2.0 | 0.00 | 0.00 | 0.00 | 73 | 1014.5 |
| 20260506025805 | 63 | 88 | 0.0 | 3.0 | 0.00 | 0.00 | 0.00 | 73 | 1014.4 |
| 20260506025306 | 63 | 88 | 1.0 | 3.0 | 0.00 | 0.00 | 0.00 | 73 | 1014.4 |
| 20260506024804 | 63 | 88 | 1.0 | 3.0 | 0.00 | 0.00 | 0.00 | 73 | 1014.4 |
| 20260506024305 | 64 | 142 | 1.0 | 3.0 | 0.00 | 0.00 | 0.00 | 73 | 1014.3 |
| 20260506023304 | 64 | 145 | 3.0 | 7.0 | 0.00 | 0.00 | 0.00 | 72 | 1014.3 |
| 20260506022306 | 64 | 144 | 2.0 | 7.0 | 0.00 | 0.00 | 0.00 | 72 | 1014.4 |
| 20260506021304 | 65 | 96 | 2.0 | 3.0 | 0.00 | 0.00 | 0.00 | 71 | 1014.4 |
| 20260506020807 | 64 | 131 | 3.0 | 7.0 | 0.00 | 0.00 | 0.00 | 71 | 1014.3 |
| 20260506020307 | 65 | 110 | 3.0 | 3.0 | 0.00 | 0.00 | 0.00 | 70 | 1014.3 |
| 20260506015807 | 66 | 81 | 1.0 | 6.0 | 0.00 | 0.00 | 0.00 | 68 | 1014.3 |
| 20260506014307 | 65 | 59 | 2.0 | 3.0 | 0.00 | 0.00 | 0.00 | 69 | 1014.3 |
| 20260506013807 | 65 | 38 | 3.0 | 6.0 | 0.00 | 0.00 | 0.00 | 69 | 1014.3 |
| 20260506012308 | 65 | 339 | 3.0 | 5.0 | 0.00 | 0.00 | 0.00 | 68 | 1014.3 |
| 20260506011807 | 65 | 336 | 2.0 | 3.0 | 0.00 | 0.00 | 0.00 | 69 | 1014.3 |
| 20260506011307 | 65 | 323 | 2.0 | 3.0 | 0.00 | 0.00 | 0.00 | 70 | 1014.3 |
| 20260506010307 | 65 | 14 | 3.0 | 7.0 | 0.00 | 0.00 | 0.00 | 69 | 1014.1 |
| 20260506005307 | 65 | 48 | 2.0 | 5.0 | 0.00 | 0.00 | 0.00 | 69 | 1014.2 |
| 20260506004807 | 64 | 78 | 2.0 | 3.0 | 0.00 | 0.00 | 0.00 | 70 | 1014.2 |
| 20260506004307 | 65 | 30 | 2.0 | 8.0 | 0.00 | 0.00 | 0.00 | 70 | 1014.3 |
| 20260506003807 | 64 | 338 | 2.0 | 5.0 | 0.00 | 0.00 | 0.00 | 70 | 1014.3 |
| 20260506003307 | 64 | 25 | 1.0 | 3.0 | 0.00 | 0.00 | 0.00 | 70 | 1014.3 |
| 20260506002807 | 64 | 358 | 3.0 | 6.0 | 0.00 | 0.00 | 0.00 | 71 | 1014.3 |
| 20260506002307 | 64 | 50 | 2.0 | 5.0 | 0.00 | 0.00 | 0.00 | 71 | 1014.3 |
| 20260506001306 | 64 | 59 | 1.0 | 3.0 | 0.00 | 0.00 | 0.00 | 72 | 1014.5 |
| 20260505235807 | 63 | 10 | 3.0 | 5.0 | 0.00 | 0.00 | 0.00 | 70 | 1014.6 |
| 20260505235307 | 64 | 355 | 0.0 | 2.0 | 0.00 | 0.00 | 0.00 | 72 | 1014.6 |
| 20260505234807 | 63 | 355 | 1.0 | 3.0 | 0.00 | 0.00 | 0.00 | 72 | 1014.6 |
| 20260505233807 | 64 | 347 | 3.0 | 5.0 | 0.00 | 0.00 | 0.00 | 71 | 1014.7 |
| 20260505233306 | 63 | 318 | 1.0 | 3.0 | 0.00 | 0.00 | 0.00 | 71 | 1014.7 |
| 20260505232807 | 63 | 41 | 2.0 | 3.0 | 0.00 | 0.00 | 0.00 | 71 | 1014.8 |
| 20260505232306 | 63 | 345 | 2.0 | 5.0 | 0.00 | 0.00 | 0.00 | 72 | 1014.7 |
| 20260505231807 | 63 | 355 | 3.0 | 6.0 | 0.00 | 0.00 | 0.00 | 71 | 1014.6 |
| 20260505231306 | 64 | 56 | 2.0 | 3.0 | 0.00 | 0.00 | 0.00 | 71 | 1014.6 |
| 20260505230806 | 64 | 157 | 2.0 | 3.0 | 0.00 | 0.00 | 0.00 | 71 | 1014.8 |
| 20260505230307 | 63 | 309 | 1.0 | 2.0 | 0.00 | 0.00 | 0.00 | 72 | 1014.8 |
| 20260505225807 | 63 | 312 | 2.0 | 3.0 | 0.00 | 0.00 | 0.00 | 72 | 1014.8 |
| 20260505225307 | 63 | 169 | 1.0 | 3.0 | 0.00 | 0.00 | 0.00 | 73 | 1014.9 |
| 20260505224807 | 62 | 211 | 1.0 | 3.0 | 0.00 | 0.00 | 0.00 | 73 | 1015.0 |
| 20260505224307 | 63 | 213 | 2.0 | 3.0 | 0.00 | 0.00 | 0.00 | 71 | 1015.1 |
| 20260505223307 | 62 | 263 | 2.0 | 3.0 | 0.00 | 0.00 | 0.00 | 73 | 1015.3 |
| 20260505222806 | 62 | 252 | 2.0 | 3.0 | 0.00 | 0.00 | 0.00 | 73 | 1015.2 |
| 20260505222307 | 62 | 235 | 2.0 | 5.0 | 0.00 | 0.00 | 0.00 | 73 | 1015.2 |
| 20260505221307 | 62 | 231 | 2.0 | 6.0 | 0.00 | 0.00 | 0.00 | 74 | 1015.3 |
| 20260505220807 | 62 | 322 | 2.0 | 5.0 | 0.00 | 0.00 | 0.00 | 73 | 1015.3 |
| 20260505220307 | 62 | 308 | 2.0 | 6.0 | 0.00 | 0.00 | 0.00 | 73 | 1015.3 |
| 20260505215807 | 62 | 300 | 3.0 | 7.0 | 0.00 | 0.00 | 0.00 | 73 | 1015.4 |
| 20260505215306 | 62 | 245 | 3.0 | 6.0 | 0.00 | 0.00 | 0.00 | 72 | 1015.4 |
| 20260505214807 | 62 | 251 | 1.0 | 6.0 | 0.00 | 0.00 | 0.00 | 73 | 1015.3 |
| 20260505214306 | 63 | 188 | 1.0 | 3.0 | 0.00 | 0.00 | 0.00 | 72 | 1015.4 |
| 20260505213806 | 62 | 338 | 2.0 | 5.0 | 0.00 | 0.00 | 0.00 | 73 | 1015.4 |
| 20260505212806 | 63 | 249 | 2.0 | 3.0 | 0.00 | 0.00 | 0.00 | 73 | 1015.4 |
| 20260505212307 | 62 | 53 | 1.0 | 3.0 | 0.00 | 0.00 | 0.00 | 72 | 1015.4 |
| 20260505211806 | 62 | 254 | 1.0 | 6.0 | 0.00 | 0.00 | 0.00 | 72 | 1015.5 |
| 20260505211307 | 62 | 246 | 2.0 | 7.0 | 0.00 | 0.00 | 0.00 | 72 | 1015.5 |
| 20260505210806 | 62 | 179 | 3.0 | 6.0 | 0.00 | 0.00 | 0.00 | 74 | 1015.5 |
| 20260505210307 | 62 | 247 | 2.0 | 3.0 | 0.00 | 0.00 | 0.00 | 73 | 1015.5 |
| 20260505205806 | 62 | 340 | 2.0 | 5.0 | 0.00 | 0.00 | 0.00 | 72 | 1015.5 |
| 20260505205307 | 62 | 277 | 3.0 | 8.0 | 0.00 | 0.00 | 0.00 | 73 | 1015.6 |
| 20260505204806 | 62 | 225 | 3.0 | 6.0 | 0.00 | 0.00 | 0.00 | 74 | 1015.6 |
| 20260505204306 | 62 | 259 | 3.0 | 7.0 | 0.00 | 0.00 | 0.00 | 74 | 1015.7 |
| 20260505203807 | 62 | 264 | 2.0 | 7.0 | 0.00 | 0.00 | 0.00 | 74 | 1015.6 |
| 20260505203307 | 62 | 259 | 2.0 | 7.0 | 0.00 | 0.00 | 0.00 | 74 | 1015.8 |
| 20260505202807 | 62 | 287 | 2.0 | 3.0 | 0.00 | 0.00 | 0.00 | 75 | 1015.8 |
| 20260505202307 | 61 | 227 | 3.0 | 5.0 | 0.00 | 0.00 | 0.00 | 75 | 1015.8 |
| 20260505201807 | 61 | 235 | 3.0 | 6.0 | 0.00 | 0.00 | 0.00 | 75 | 1015.9 |
| 20260505201307 | 61 | 263 | 3.0 | 7.0 | 0.00 | 0.00 | 0.00 | 74 | 1015.9 |
| 20260505200806 | 61 | 257 | 3.0 | 8.0 | 0.00 | 0.00 | 0.00 | 74 | 1015.8 |
| 20260505195306 | 61 | 195 | 3.0 | 6.0 | 0.00 | 0.00 | 0.00 | 74 | 1015.9 |
| 20260505194807 | 61 | 217 | 2.0 | 6.0 | 0.00 | 0.00 | 0.00 | 74 | 1015.9 |
| 20260505194307 | 61 | 274 | 4.0 | 7.0 | 0.00 | 0.00 | 0.00 | 74 | 1015.9 |
| 20260505193807 | 61 | 191 | 3.0 | 6.0 | 0.00 | 0.00 | 0.00 | 74 | 1015.8 |
| 20260505193307 | 61 | 259 | 3.0 | 6.0 | 0.00 | 0.00 | 0.00 | 72 | 1015.9 |
| 20260505192806 | 61 | 188 | 3.0 | 7.0 | 0.00 | 0.00 | 0.00 | 73 | 1015.9 |
| 20260505191806 | 61 | 283 | 2.0 | 7.0 | 0.00 | 0.00 | 0.00 | 74 | 1015.9 |
| 20260505191307 | 61 | 177 | 3.0 | 8.0 | 0.00 | 0.00 | 0.00 | 73 | 1015.9 |
| 20260505190806 | 61 | 197 | 2.0 | 3.0 | 0.00 | 0.00 | 0.00 | 75 | 1015.8 |
| 20260505190307 | 61 | 286 | 3.0 | 5.0 | 0.00 | 0.00 | 0.00 | 75 | 1015.8 |
| 20260505185806 | 61 | 213 | 2.0 | 3.0 | 0.00 | 0.00 | 0.00 | 75 | 1015.8 |
| 20260505185307 | 61 | 230 | 4.0 | 6.0 | 0.00 | 0.00 | 0.00 | 75 | 1015.8 |
| 20260505184806 | 61 | 205 | 3.0 | 5.0 | 0.00 | 0.00 | 0.00 | 74 | 1015.9 |
| 20260505184306 | 61 | 239 | 2.0 | 6.0 | 0.00 | 0.00 | 0.00 | 75 | 1015.9 |
| 20260505183806 | 61 | 257 | 2.0 | 3.0 | 0.00 | 0.00 | 0.00 | 75 | 1015.9 |
| 20260505182306 | 59 | 124 | 2.0 | 7.0 | 0.00 | 0.00 | 0.00 | 77 | 1015.9 |
| 20260505181306 | 59 | 232 | 2.0 | 7.0 | 0.00 | 0.00 | 0.00 | 78 | 1015.7 |
| 20260505180307 | 59 | 241 | 1.0 | 3.0 | 0.00 | 0.00 | 0.00 | 78 | 1015.9 |
| 20260505175806 | 59 | 268 | 3.0 | 5.0 | 0.00 | 0.00 | 0.00 | 79 | 1015.8 |
| 20260505175306 | 58 | 264 | 3.0 | 6.0 | 0.00 | 0.00 | 0.00 | 79 | 1015.9 |
| 20260505174806 | 58 | 189 | 3.0 | 5.0 | 0.00 | 0.00 | 0.00 | 79 | 1015.9 |
| 20260505174306 | 57 | 265 | 1.0 | 3.0 | 0.00 | 0.00 | 0.00 | 80 | 1015.9 |
| 20260505173806 | 58 | 255 | 3.0 | 6.0 | 0.00 | 0.00 | 0.00 | 80 | 1015.9 |
| 20260505173306 | 57 | 302 | 2.0 | 5.0 | 0.00 | 0.00 | 0.00 | 80 | 1015.8 |
| 20260505172806 | 57 | 226 | 2.0 | 5.0 | 0.00 | 0.00 | 0.00 | 80 | 1015.8 |
| 20260505172306 | 57 | 235 | 2.0 | 6.0 | 0.00 | 0.00 | 0.00 | 80 | 1015.8 |
| 20260505171807 | 57 | 242 | 1.0 | 5.0 | 0.00 | 0.00 | 0.00 | 81 | 1015.8 |
| 20260505170806 | 57 | 226 | 2.0 | 5.0 | 0.00 | 0.00 | 0.00 | 82 | 1015.7 |
| 20260505165806 | 56 | 179 | 2.0 | 5.0 | 0.00 | 0.00 | 0.00 | 82 | 1015.6 |
| 20260505164806 | 56 | 244 | 2.0 | 5.0 | 0.00 | 0.00 | 0.00 | 82 | 1015.6 |
| 20260505164306 | 56 | 242 | 3.0 | 7.0 | 0.00 | 0.00 | 0.00 | 83 | 1015.6 |
| 20260505163806 | 56 | 236 | 3.0 | 6.0 | 0.00 | 0.00 | 0.00 | 83 | 1015.6 |
| 20260505163306 | 56 | 174 | 3.0 | 5.0 | 0.00 | 0.00 | 0.00 | 84 | 1015.5 |
| 20260505162805 | 56 | 229 | 2.0 | 5.0 | 0.00 | 0.00 | 0.00 | 84 | 1015.5 |
| 20260505162307 | 56 | 169 | 3.0 | 5.0 | 0.00 | 0.00 | 0.00 | 84 | 1015.5 |
| 20260505161806 | 55 | 236 | 1.0 | 5.0 | 0.00 | 0.00 | 0.00 | 84 | 1015.4 |
| 20260505161306 | 55 | 151 | 3.0 | 6.0 | 0.00 | 0.00 | 0.00 | 84 | 1015.4 |
| 20260505160805 | 56 | 237 | 1.0 | 3.0 | 0.00 | 0.00 | 0.00 | 84 | 1015.4 |
| 20260505160306 | 55 | 225 | 1.0 | 3.0 | 0.00 | 0.00 | 0.00 | 85 | 1015.4 |
| 20260505153306 | 55 | 187 | 2.0 | 5.0 | 0.00 | 0.00 | 0.00 | 85 | 1015.5 |
| 20260505152806 | 55 | 146 | 2.0 | 3.0 | 0.00 | 0.00 | 0.00 | 85 | 1015.4 |
| 20260505152306 | 55 | 203 | 2.0 | 3.0 | 0.00 | 0.00 | 0.00 | 85 | 1015.3 |
| 20260505151806 | 55 | 188 | 2.0 | 3.0 | 0.00 | 0.00 | 0.00 | 86 | 1015.3 |
| 20260505151307 | 55 | 186 | 4.0 | 7.0 | 0.00 | 0.00 | 0.00 | 85 | 1015.3 |
| 20260505150805 | 55 | 182 | 3.0 | 5.0 | 0.00 | 0.00 | 0.00 | 85 | 1015.3 |
| 20260505150306 | 54 | 181 | 2.0 | 3.0 | 0.00 | 0.00 | 0.00 | 86 | 1015.3 |
| 20260505140306 | 54 | 167 | 3.0 | 7.0 | 0.00 | 0.00 | 0.00 | 86 | 1014.7 |
| 20260505130305 | 53 | 180 | 2.0 | 3.0 | 0.00 | 0.00 | 0.00 | 87 | 1014.5 |
| 20260505124805 | 53 | 156 | 2.0 | 3.0 | 0.00 | 0.00 | 0.00 | 87 | 1014.5 |
| 20260505124306 | 53 | 151 | 1.0 | 3.0 | 0.00 | 0.00 | 0.00 | 87 | 1014.4 |
| 20260505123806 | 53 | 231 | 2.0 | 5.0 | 0.00 | 0.00 | 0.00 | 87 | 1014.3 |
| 20260505123305 | 53 | 153 | 1.0 | 3.0 | 0.00 | 0.00 | 0.00 | 88 | 1014.3 |
| 20260505122806 | 53 | 202 | 2.0 | 3.0 | 0.00 | 0.00 | 0.00 | 88 | 1014.3 |
| 20260505122306 | 53 | 205 | 1.0 | 3.0 | 0.00 | 0.00 | 0.00 | 88 | 1014.4 |
| 20260505121805 | 53 | 205 | 1.0 | 3.0 | 0.00 | 0.00 | 0.00 | 88 | 1014.4 |
| 20260505121305 | 53 | 206 | 1.0 | 2.0 | 0.00 | 0.00 | 0.00 | 88 | 1014.3 |
| 20260505120806 | 53 | 205 | 1.0 | 2.0 | 0.00 | 0.00 | 0.00 | 88 | 1014.3 |
| 20260505120306 | 53 | 206 | 2.0 | 3.0 | 0.00 | 0.00 | 0.00 | 88 | 1014.2 |
| 20260505114806 | 53 | 206 | 0.0 | 3.0 | 0.00 | 0.00 | 0.00 | 89 | 1014.2 |
| 20260505113806 | 53 | 199 | 1.0 | 2.0 | 0.00 | 0.00 | 0.00 | 89 | 1014.2 |
| 20260505113306 | 53 | 199 | 1.0 | 2.0 | 0.00 | 0.00 | 0.00 | 89 | 1014.2 |
| 20260505112805 | 53 | 199 | 1.0 | 3.0 | 0.00 | 0.00 | 0.00 | 89 | 1014.3 |
| 20260505112305 | 53 | 199 | 2.0 | 5.0 | 0.00 | 0.00 | 0.00 | 89 | 1014.2 |
| 20260505111305 | 53 | 206 | 3.0 | 3.0 | 0.00 | 0.00 | 0.00 | 89 | 1014.1 |
| 20260505110805 | 53 | 184 | 1.0 | 3.0 | 0.00 | 0.00 | 0.00 | 89 | 1014.1 |
| 20260505101805 | 52 | 169 | 1.0 | 3.0 | 0.00 | 0.00 | 0.00 | 90 | 1013.6 |
| 20260505101305 | 52 | 169 | 0.0 | 1.0 | 0.00 | 0.00 | 0.00 | 90 | 1013.6 |
| 20260505100805 | 52 | 169 | 0.0 | 2.0 | 0.00 | 0.00 | 0.00 | 90 | 1013.7 |
| 20260505095805 | 52 | 166 | 1.0 | 5.0 | 0.00 | 0.00 | 0.00 | 90 | 1013.6 |
| 20260505095305 | 52 | 194 | 2.0 | 3.0 | 0.00 | 0.00 | 0.00 | 90 | 1013.7 |
| 20260505094805 | 52 | 157 | 2.0 | 3.0 | 0.00 | 0.00 | 0.00 | 90 | 1013.7 |
| 20260505094305 | 52 | 157 | 2.0 | 3.0 | 0.00 | 0.00 | 0.00 | 90 | 1013.6 |
| 20260505093805 | 52 | 153 | 2.0 | 3.0 | 0.00 | 0.00 | 0.00 | 90 | 1013.6 |
| 20260505093305 | 52 | 153 | 2.0 | 3.0 | 0.00 | 0.00 | 0.00 | 90 | 1013.5 |
| 20260505092805 | 52 | 161 | 2.0 | 3.0 | 0.00 | 0.00 | 0.00 | 89 | 1013.4 |
| 20260505092305 | 52 | 213 | 0.0 | 3.0 | 0.00 | 0.00 | 0.00 | 89 | 1013.4 |
| 20260505091805 | 52 | 205 | 2.0 | 3.0 | 0.00 | 0.00 | 0.00 | 89 | 1013.4 |
| 20260505090805 | 52 | 186 | 2.0 | 5.0 | 0.00 | 0.00 | 0.00 | 89 | 1013.4 |
| 20260505090305 | 52 | 153 | 2.0 | 3.0 | 0.00 | 0.00 | 0.00 | 89 | 1013.3 |
| 20260505085805 | 52 | 189 | 3.0 | 6.0 | 0.00 | 0.00 | 0.00 | 89 | 1013.2 |
| 20260505085305 | 52 | 171 | 3.0 | 5.0 | 0.00 | 0.00 | 0.00 | 88 | 1013.2 |
| 20260505084805 | 53 | 188 | 3.0 | 5.0 | 0.00 | 0.00 | 0.00 | 88 | 1013.1 |
| 20260505084305 | 53 | 159 | 3.0 | 6.0 | 0.00 | 0.00 | 0.00 | 88 | 1013.2 |
| 20260505083805 | 53 | 193 | 3.0 | 8.0 | 0.00 | 0.00 | 0.00 | 88 | 1013.2 |
| 20260505083305 | 53 | 216 | 2.0 | 5.0 | 0.00 | 0.00 | 0.00 | 88 | 1013.3 |
| 20260505082805 | 53 | 157 | 2.0 | 3.0 | 0.00 | 0.00 | 0.00 | 87 | 1013.3 |
| 20260505082305 | 53 | 159 | 3.0 | 5.0 | 0.00 | 0.00 | 0.00 | 87 | 1013.3 |
| 20260505081805 | 53 | 174 | 1.0 | 3.0 | 0.00 | 0.00 | 0.00 | 87 | 1013.2 |
| 20260505081305 | 53 | 145 | 2.0 | 5.0 | 0.00 | 0.00 | 0.00 | 87 | 1013.2 |
| 20260505080805 | 53 | 140 | 1.0 | 3.0 | 0.00 | 0.00 | 0.00 | 86 | 1013.1 |
| 20260505075805 | 54 | 201 | 3.0 | 5.0 | 0.00 | 0.00 | 0.00 | 86 | 1013.0 |
| 20260505075305 | 54 | 175 | 1.0 | 5.0 | 0.00 | 0.00 | 0.00 | 86 | 1013.0 |
| 20260505074305 | 54 | 188 | 1.0 | 5.0 | 0.00 | 0.00 | 0.00 | 85 | 1012.8 |
| 20260505073305 | 54 | 201 | 3.0 | 5.0 | 0.00 | 0.00 | 0.00 | 85 | 1012.6 |
| 20260505072805 | 54 | 172 | 3.0 | 8.0 | 0.00 | 0.00 | 0.00 | 85 | 1012.6 |
| 20260505071804 | 55 | 206 | 3.0 | 7.0 | 0.00 | 0.00 | 0.00 | 84 | 1012.5 |
| 20260505071305 | 55 | 150 | 5.0 | 8.0 | 0.00 | 0.00 | 0.00 | 84 | 1012.5 |
| 20260505070817 | 55 | 235 | 2.0 | 3.0 | 0.00 | 0.00 | 0.00 | 83 | 1012.5 |
| 20260505070305 | 55 | 220 | 1.0 | 2.0 | 0.00 | 0.00 | 0.00 | 83 | 1012.4 |
| 20260505065804 | 55 | 43 | 3.0 | 6.0 | 0.00 | 0.00 | 0.00 | 83 | 1012.4 |
| 20260505065305 | 55 | 193 | 3.0 | 7.0 | 0.00 | 0.00 | 0.00 | 83 | 1012.3 |
| 20260505064805 | 56 | 178 | 2.0 | 5.0 | 0.00 | 0.00 | 0.00 | 83 | 1012.3 |
| 20260505064304 | 56 | 146 | 3.0 | 7.0 | 0.00 | 0.00 | 0.00 | 83 | 1012.2 |
| 20260505062305 | 56 | 181 | 3.0 | 6.0 | 0.00 | 0.00 | 0.00 | 82 | 1011.9 |
| 20260505061805 | 56 | 157 | 3.0 | 9.0 | 0.00 | 0.00 | 0.00 | 82 | 1011.9 |
| 20260505061305 | 57 | 170 | 2.0 | 6.0 | 0.00 | 0.00 | 0.00 | 81 | 1011.8 |
| 20260505060804 | 57 | 186 | 3.0 | 10.0 | 0.00 | 0.00 | 0.00 | 81 | 1011.8 |
| 20260505060305 | 57 | 165 | 3.0 | 10.0 | 0.00 | 0.00 | 0.00 | 81 | 1011.9 |
| 20260505055805 | 57 | 174 | 4.0 | 8.0 | 0.00 | 0.00 | 0.00 | 80 | 1011.8 |
| 20260505055305 | 57 | 181 | 3.0 | 9.0 | 0.00 | 0.00 | 0.00 | 80 | 1011.7 |
| 20260505054805 | 58 | 168 | 4.0 | 8.0 | 0.00 | 0.00 | 0.00 | 80 | 1011.6 |
| 20260505054304 | 58 | 161 | 5.0 | 9.0 | 0.00 | 0.00 | 0.00 | 80 | 1011.6 |
| 20260505053805 | 58 | 179 | 4.0 | 10.0 | 0.00 | 0.00 | 0.00 | 80 | 1011.5 |
| 20260505053305 | 58 | 173 | 4.0 | 12.0 | 0.00 | 0.00 | 0.00 | 79 | 1011.4 |
| 20260505052804 | 58 | 159 | 6.0 | 12.0 | 0.00 | 0.00 | 0.00 | 79 | 1011.4 |
| 20260505052305 | 59 | 166 | 5.0 | 12.0 | 0.00 | 0.00 | 0.00 | 78 | 1011.4 |
| 20260505051804 | 59 | 189 | 6.0 | 10.0 | 0.00 | 0.00 | 0.00 | 78 | 1011.4 |
| 20260505051304 | 59 | 174 | 4.0 | 10.0 | 0.00 | 0.00 | 0.00 | 78 | 1011.2 |
| 20260505050805 | 60 | 185 | 5.0 | 9.0 | 0.00 | 0.00 | 0.00 | 77 | 1011.3 |
| 20260505050305 | 60 | 198 | 4.0 | 9.0 | 0.00 | 0.00 | 0.00 | 77 | 1011.3 |
| 20260505041304 | 64 | 161 | 2.0 | 6.0 | 0.00 | 0.00 | 0.00 | 73 | 1010.5 |
| 20260505040804 | 64 | 185 | 3.0 | 6.0 | 0.00 | 0.00 | 0.00 | 73 | 1010.4 |
| 20260505040305 | 65 | 173 | 3.0 | 8.0 | 0.00 | 0.00 | 0.00 | 72 | 1010.3 |
| 20260505035804 | 65 | 191 | 3.0 | 7.0 | 0.00 | 0.00 | 0.00 | 72 | 1010.2 |
| 20260505035305 | 65 | 186 | 3.0 | 7.0 | 0.00 | 0.00 | 0.00 | 71 | 1010.1 |
| 20260505034305 | 66 | 187 | 3.0 | 6.0 | 0.00 | 0.00 | 0.00 | 70 | 1010.0 |
| 20260505033804 | 66 | 178 | 3.0 | 7.0 | 0.00 | 0.00 | 0.00 | 70 | 1009.9 |